Location: Julian California
(33.0790°N, 116.6010°W)
Time: 06:41:29
(UTC-07:00)

Daily predictions for brighter satellites

Satellite Brightness Start Highest point End
(mag) Time Altitude Azimuth Time Altitude Azimuth Time Altitude Azimuth
Cosmos 1758 Rocket 4.1 20:19:57 10° SSE 20:24:06 41° E 20:28:14 10° NNE
CZ-2D R/B 3.9 20:22:59 10° S 20:26:46 57° W 20:30:35 10° NNW
Cosmos 1470 3.4 20:25:42 10° NNW 20:29:33 59° W 20:33:23 10° S
Cosmos 1461 4.4 20:26:13 10° SSE 20:29:34 21° ESE 20:33:01 10° ENE
Cosmos 1400 Rocket 3.6 20:26:52 10° SSW 20:30:50 56° W 20:34:44 10° N
NOSS 3-4 (A) 4.5 20:26:15 10° SSE 20:30:54 23° ESE 20:35:36 10° ENE
NOSS 3-4 (C) 4.5 20:26:24 10° SSE 20:31:00 22° ESE 20:35:39 10° ENE
CZ-3C R/B 3.6 20:11:34 10° SW 20:32:14 24° SSW 20:37:28 10° SE
Cosmos 1048 Rocket 4.3 20:28:26 10° SSW 20:33:42 75° WNW 20:39:04 10° NNE
CZ-3 Stage 3 2.9 20:31:19 10° WSW 20:34:05 61° SSE 20:43:58 10° E
Cosmos 1238 Rocket 3.0 20:33:29 10° SSE 20:36:04 29° E 20:38:44 10° NNE
Cosmos 1932 4.5 20:30:20 10° NNW 20:36:33 83° ENE 20:42:43 10° SSE
Cosmos 1346 Rocket 4.2 20:34:44 10° NNE 20:37:56 22° ENE 20:40:59 11° SE
Meteor 1-24 Rocket 4.0 20:36:43 10° S 20:42:33 55° E 20:48:24 10° NNE
In-Cosmos 22 4.2 20:41:37 10° S 20:47:06 72° E 20:52:45 10° NNE
Cosmos 1825 Rocket 3.7 20:42:52 10° S 20:47:19 85° W 20:51:47 10° N
Resurs 01 Rocket 1.6 20:46:51 10° SSE 20:51:14 80° ENE 20:55:40 10° N
Cosmos 1674 3.5 20:49:30 10° SSE 20:52:53 32° E 20:56:18 10° NNE
Spot 2 Rocket 3.6 20:48:27 10° SSE 20:53:22 59° ENE 20:58:21 10° N
Cosmos 1726 4.0 20:55:32 10° NE 20:57:49 15° ENE 20:59:03 13° E
ERS-2 2.1 20:55:51 12° SSE 20:59:14 69° ENE 21:02:52 10° N
USA 186 3.5 20:57:57 10° SSW 21:00:47 29° W 21:03:27 10° NW
OAO 3 Rocket 3.3 20:59:57 10° WNW 21:04:56 80° N 21:09:12 14° E
Cosmos 2084 3.1 21:03:29 10° NNW 21:07:19 83° ENE 21:09:52 20° SSE
ATLAS 3B R/B 3.5 21:05:37 10° NNW 21:11:36 35° NE 21:15:59 17° ESE
Cosmos 1437 2.5 21:11:58 10° N 21:15:09 85° E 21:17:00 23° S
Cosmos 1110 Rocket 4.2 21:13:11 10° N 21:18:16 55° ENE 21:21:24 23° SE
Aurora 2 Rocket 3.9 21:15:53 10° WSW 21:20:55 40° S 21:25:11 21° ESE
Cosmos 494 Rocket 4.3 21:16:04 10° SSW 21:21:16 69° WNW 21:26:31 10° NNE
USA 238 DEB 4.1 21:14:20 10° NNW 21:21:24 58° ENE 21:26:12 22° SE
USA 238 4.1 21:14:26 10° NNW 21:21:30 58° ENE 21:26:17 22° SE
Cosmos-2242 3.0 21:17:10 10° N 21:21:33 78° E 21:24:32 20° SSE
NOSS 2-2 (C) 3.9 21:24:02 29° SE 21:24:53 33° ESE 21:28:25 10° NE
ARGOS 3.3 21:21:39 21° SSE 21:25:16 62° ENE 21:30:37 10° N
Iridium 81 3.9 21:26:02 48° E 21:26:02 48° E 21:28:45 10° NNE
PSLV R/B 3.1 21:23:39 10° WSW 21:26:45 74° NNW 21:29:31 12° ENE
MetOp-A 4.2 21:23:28 22° SSE 21:26:51 60° ENE 21:32:07 10° N
Cosmos 1331 Rocket 4.1 21:23:28 10° N 21:28:38 62° ENE 21:31:26 27° SE
Cosmos 1244 Rocket 4.5 21:23:34 10° N 21:29:58 81° E 21:34:48 18° S
Meteor 2-1 Rocket 4.4 21:24:15 10° N 21:30:06 62° E 21:33:35 24° SSE
Terra 4.0 21:29:14 10° ENE 21:30:07 10° ENE 21:31:00 10° NE
Cosmos 2278 Rocket 2.1 21:29:10 10° S 21:34:45 67° ESE 21:40:23 10° NNE
RESURS DK-1 4.3 21:37:02 15° ENE 21:37:02 15° ENE 21:38:19 10° ENE
H-2A R/B 2.1 21:37:33 28° SSE 21:40:23 70° ENE 21:45:45 10° N
SL-08 RB Rocket 3.7 21:43:08 34° SSE 21:45:08 76° ENE 21:49:48 10° N
SEDSat Delta rocket 3.3 21:40:22 10° WSW 21:45:55 67° S 21:48:11 32° E
H-II Stage 2 3.5 21:44:17 10° SW 21:45:57 16° SSW 21:45:57 16° SSW
ERS-1 Rocket 3.1 21:46:43 36° SE 21:48:35 58° ENE 21:53:31 10° N
Cosmos 1842 Rocket 3.7 21:46:44 10° N 21:51:01 55° E 21:51:53 46° SE
S3M 4.0 21:50:05 16° S 21:55:22 85° W 22:01:47 10° N
Cosmos 1626 3.6 21:58:16 24° ENE 21:58:16 24° ENE 22:00:23 10° NNE
NOSS 3-2 (C) 4.5 21:51:30 10° NNW 21:58:59 51° NE 22:03:01 29° ESE
Cosmos 1302 Rocket 4.0 21:54:08 10° N 21:59:23 65° ENE 22:00:52 45° SE
ATLAS 5 CENTAUR R/B 1.6 21:55:16 10° SSW 21:59:37 82° WNW 22:04:19 10° NNE
Meteor 1-21 Rocket 4.2 21:58:54 23° S 22:02:43 87° W 22:08:32 10° N
SL-14 R/B 3.1 22:02:38 70° S 22:03:03 84° E 22:06:59 10° N
COSMOS 2406 3.3 21:58:36 10° NNW 22:04:19 71° WSW 22:06:39 37° S
USA 215 3.2 22:04:31 36° SSE 22:07:26 76° SW 22:14:00 10° NW
Cosmos 2221 2.9 22:07:08 10° N 22:11:04 45° ENE 22:11:04 45° ENE
Cosmos 1340 3.3 22:12:43 10° NNW 22:16:22 48° W 22:16:45 46° WSW
CENTAUR R/B 4.1 22:09:23 10° NNW 22:16:40 35° NE 22:20:43 24° E
NOSS 2-2 (E) 4.4 22:13:58 10° SW 22:17:36 44° NW 22:21:34 10° NNE
DMSP B5D2-2 4.4 22:15:36 10° N 22:20:45 64° WNW 22:23:31 27° SSW
NOSS 3-4 (A) 4.4 22:15:26 10° SW 22:21:19 48° NW 22:27:25 10° NNE
NOSS 3-4 (C) 4.3 22:15:31 10° SW 22:21:23 48° NW 22:27:30 10° NNE
Cosmos 2297 3.7 22:20:49 56° SE 22:21:32 61° ESE 22:27:09 10° NNE
IGS 5A 4.2 22:23:57 41° NE 22:23:57 41° NE 22:27:21 10° N
SPOT 5 2.9 22:22:43 62° SSE 22:23:36 84° ENE 22:28:53 10° N
Cosmos 1833 Rocket 3.4 22:18:27 10° N 22:23:37 37° ENE 22:24:23 35° E
Okean 3 Rocket 4.0 22:24:59 49° ENE 22:24:59 49° ENE 22:28:33 10° NNE
CZ-2C R/B 3.6 22:21:18 10° NE 22:25:06 30° ENE 22:25:06 30° ENE
Cosmos 2082 Rocket 3.0 22:22:23 10° N 22:27:34 35° ENE 22:28:17 34° E
APEX 3.9 22:26:29 10° NW 22:29:36 50° W 22:29:36 50° W
Cosmos 883 Rocket 4.4 22:27:54 40° SSW 22:30:16 82° W 22:36:32 10° N
Cosmos 1726 4.0 22:30:01 10° NW 22:33:01 23° W 22:33:38 22° WSW
Cosmos 1455 4.4 22:36:24 10° NNE 22:37:43 17° NE 22:37:43 17° NE
Cosmos 1300 3.7 22:38:04 10° NNW 22:41:12 43° WNW 22:41:12 43° WNW
Cosmos 2315 Rocket 3.9 22:41:53 53° S 22:43:31 86° W 22:49:54 10° N
Landsat 7 3.9 22:47:49 68° W 22:47:49 68° W 22:52:30 10° NNW
OAO 3 Rocket 4.3 22:43:40 10° W 22:46:59 36° WSW 22:46:59 36° WSW
CZ-2C R/B 3.2 22:51:29 69° E 22:51:48 71° ENE 22:57:31 10° N
CARTOSAT-1 4.1 22:54:53 57° NNW 22:54:53 57° NNW 22:58:24 10° NNW
Cosmos 1076 Rocket 4.3 22:55:11 46° WNW 22:55:11 46° WNW 22:58:55 10° N
Nimbus 7 Rocket 4.3 22:49:46 10° NNE 22:55:49 89° ESE 22:56:35 70° SSW
Helios 1B rocket 3.5 22:53:05 10° N 22:56:47 40° WNW 22:56:47 40° WNW
Helios 1A 4.3 23:00:49 33° W 23:00:49 33° W 23:04:08 10° NNW
ATLAS 3B R/B 3.4 22:56:17 10° NW 23:02:10 36° WSW 23:03:15 34° SW
Terra 2.3 23:07:55 58° NW 23:07:55 58° NW 23:11:58 10° NNW
RESURS DK-1 4.2 23:12:51 26° WNW 23:13:11 26° WNW 23:16:42 10° N
EO 1 Delta rocket 4.3 23:17:29 10° N 23:22:59 70° NW 23:22:59 70° NW
Nadezhda 1 Rocket 4.1 23:33:00 69° ENE 23:33:00 69° ENE 23:38:52 10° N
Cosmos 2369 Rocket 3.2 23:47:45 39° NE 23:47:45 39° NE 23:51:22 10° NNE
ATLAS 3B CENTAUR R/B 3.3 23:34:47 10° W 23:48:27 59° SW 23:48:27 59° SW
Cosmos 1140 Rocket 4.5 23:54:42 43° N 23:54:42 43° N 23:58:09 10° NNE
